This is the latest recevied weather packets stored in our database for station/object WD5U-1. If no packets are shown the sender has not sent any weather packets the latest 10 day(s).
| Time | Temp. | Humidity | Pressure | Rain* | Wind** | Luminosity | Snow |
|---|---|---|---|---|---|---|---|
| 1777562182 | 15.56° C | 86% | 1017.3 hPa | 0 mm | - | - | - |
| 1777560977 | 15.56° C | 86% | 1017.4 hPa | 0 mm | - | - | - |
| 1777560262 | 15° C | 88% | 1017.2 hPa | 0 mm | - | - | - |
| 1777560157 | 15° C | 88% | 1017.3 hPa | 0 mm | - | - | - |
| 1777560018 | 15° C | 88% | 1017.3 hPa | 0 mm | - | - | - |
| 1777559185 | 15° C | 90% | 1016.8 hPa | 0 mm | - | - | - |
| 1777556797 | 14.44° C | 89% | 1016.7 hPa | 0 mm | - | - | - |
| 1777555238 | 13.89° C | 89% | 1016.7 hPa | 0 mm | - | - | - |
| 1777554620 | 13.33° C | 90% | 1016.5 hPa | 0 mm | - | - | - |
| 1777554499 | 13.33° C | 90% | 1016.6 hPa | 0 mm | - | - | - |
| 1777553062 | 12.78° C | 92% | 1016.5 hPa | 0 mm | - | - | - |
| 1777552100 | 12.78° C | 91% | 1016.6 hPa | 0 mm | - | - | - |
| 1777551019 | 12.22° C | 91% | 1016.6 hPa | 0 mm | - | - | - |
| 1777550906 | 12.22° C | 91% | 1016.6 hPa | 0 mm | - | - | - |
| 1777550784 | 12.22° C | 90% | 1016.5 hPa | 0 mm | - | - | - |
| 1777550065 | 12.22° C | 91% | 1015.9 hPa | 0 mm | - | - | - |
| 1777549478 | 12.22° C | 91% | 1016.1 hPa | 0 mm | - | - | - |
| 1777548162 | 12.22° C | 90% | 1016.2 hPa | 0 mm | - | - | - |
| 1777547545 | 12.78° C | 89% | 1016.2 hPa | 0 mm | - | - | - |
| 1777547200 | 12.78° C | 89% | 1016.3 hPa | 0 mm | - | - | - |
| 1777546482 | 12.22° C | 88% | 1016.3 hPa | 0 mm | - | - | - |
| 1777546342 | 12.78° C | 88% | 1016.2 hPa | 0 mm | - | - | - |
| 1777545864 | 12.78° C | 88% | 1016.2 hPa | 0 mm | - | - | - |
| 1777545277 | 12.78° C | 87% | 1016.3 hPa | 0 mm | - | - | - |
| 1777544781 | 12.78° C | 87% | 1016 hPa | 0 mm | - | - | - |
* Rain latest hour (hover to see other rain measurements)
** Current wind speed in m/s (hover to see current wind gust speed)